Weather History for Hazen, ND

Change the Weather History Date:

Saturday, May 11, 2013

  Actual Average (KN60) Record (KN60)
Temperature  
Mean Temperature 40 °F -  
Max Temperature 53 °F 61 °F 65 °F (2008)
Min Temperature 26 °F 36 °F 25 °F (2005)
Degree Days  
Heating Degree Days 24    
Moisture  
Dew Point 19 °F    
Average Humidity 47    
Maximum Humidity 80    
Minimum Humidity 16    
Precipitation  
Precipitation 0.00 in - - ()
Sea Level Pressure  
Sea Level Pressure 30.35 in    
Wind  
Wind Speed 7 mph (NNW)    
Max Wind Speed 13 mph    
Max Gust Speed 18 mph    
Visibility 10 miles    
Events      
Averages and records for this station are not official NWS values.
T = Trace of Precipitation, MM = Missing Value Source: NWS Daily Summary

Daily Weather History Graph

Daily Weather History Graph

Search for Another Location

Airport:

Trip Planner

Search our weather history database for the weather conditions in past years. The results will help you decide how hot, cold, wet, or windy it might be!

Date:

Astronomy

May. 11, 2013 Rise Set
Actual Time 6:14 AM CDT 9:11 PM CDT
Civil Twilight 5:39 AM CDT 9:47 PM CDT
Nautical Twilight 4:53 AM CDT 10:33 PM CDT
Astronomical Twilight 3:58 AM CDT 11:29 PM CDT
Moon 7:22 AM CDT (5/11) 10:55 PM CDT (5/11)
Length of Visible Light 16h 08m
Length of Day
14h 56m
Waxing Crescent, 3% of the Moon is Illuminated
May 11
Waxing Crescent
May 17
First Quarter
May 24
Full
May 31
Last Quarter
Jun 8
New

Hourly Weather History & Observations

Time (CDT) Temp. Windchill Dew Point Humidity Pressure Visibility Wind Dir Wind Speed Gust Speed Precip Events Conditions
12:15 AM 37.4 °F 32.1 °F 23.0 °F 56% 30.29 in 10.0 mi West 6.9 mph - N/A   Clear
12:35 AM 37.4 °F 32.8 °F 23.0 °F 56% 30.30 in 10.0 mi West 5.8 mph - N/A   Clear
12:55 AM 37.4 °F 32.8 °F 24.8 °F 60% 30.31 in 10.0 mi WNW 5.8 mph - N/A   Scattered Clouds
1:15 AM 37.4 °F 32.1 °F 24.8 °F 60% 30.32 in 10.0 mi NNW 6.9 mph - N/A   Mostly Cloudy
1:35 AM 37.4 °F 32.8 °F 24.8 °F 60% 30.33 in 10.0 mi NW 5.8 mph - N/A   Mostly Cloudy
1:55 AM 35.6 °F 30.7 °F 24.8 °F 65% 30.34 in 10.0 mi NW 5.8 mph - N/A   Partly Cloudy
2:15 AM 37.4 °F 29.3 °F 24.8 °F 60% 30.36 in 10.0 mi North 12.7 mph 18.4 mph N/A   Clear
2:35 AM 37.4 °F 30.3 °F 24.8 °F 60% 30.36 in 10.0 mi NNE 10.4 mph - N/A   Clear
2:55 AM 37.4 °F 31.4 °F 26.6 °F 65% 30.37 in 10.0 mi North 8.1 mph - N/A   Clear
3:15 AM 33.8 °F 26.4 °F 24.8 °F 70% 30.37 in 10.0 mi North 9.2 mph - N/A   Clear
3:35 AM 32.0 °F 23.6 °F 24.8 °F 75% 30.37 in 10.0 mi North 10.4 mph - N/A   Partly Cloudy
3:55 AM 32.0 °F 23.6 °F 24.8 °F 75% 30.38 in 10.0 mi North 10.4 mph - N/A   Clear
4:15 AM 32.0 °F 24.8 °F 24.8 °F 75% 30.39 in 10.0 mi North 8.1 mph - N/A   Clear
4:35 AM 32.0 °F 24.8 °F 24.8 °F 75% 30.39 in 10.0 mi North 8.1 mph - N/A   Clear
4:55 AM 32.0 °F 24.8 °F 24.8 °F 75% 30.40 in 10.0 mi NNW 8.1 mph - N/A   Partly Cloudy
5:15 AM 32.0 °F 26.4 °F 24.8 °F 75% 30.40 in 10.0 mi NNW 5.8 mph - N/A   Partly Cloudy
5:35 AM 28.4 °F 23.3 °F 23.0 °F 80% 30.41 in 10.0 mi NW 4.6 mph - N/A   Clear
5:55 AM 28.4 °F - 23.0 °F 80% 30.41 in 10.0 mi Calm Calm - N/A   Clear
6:15 AM 28.4 °F - 23.0 °F 80% 30.41 in 10.0 mi Calm Calm - N/A   Clear
6:35 AM 28.4 °F 23.3 °F 23.0 °F 80% 30.42 in 10.0 mi West 4.6 mph - N/A   Clear
6:55 AM 30.2 °F 24.3 °F 23.0 °F 75% 30.43 in 10.0 mi NW 5.8 mph - N/A   Clear
7:15 AM 32.0 °F 26.4 °F 24.8 °F 75% 30.43 in 10.0 mi NNW 5.8 mph - N/A   Clear
7:35 AM 32.0 °F 26.4 °F 24.8 °F 75% 30.44 in 10.0 mi NW 5.8 mph - N/A   Clear
7:55 AM 33.8 °F 27.7 °F 24.8 °F 70% 30.44 in 10.0 mi NW 6.9 mph - N/A   Clear
8:15 AM 35.6 °F 27.5 °F 24.8 °F 65% 30.44 in 10.0 mi NNW 11.5 mph - N/A   Clear
8:35 AM 37.4 °F 29.3 °F 24.8 °F 60% 30.44 in 10.0 mi North 12.7 mph - N/A   Clear
8:55 AM 37.4 °F 30.8 °F 24.8 °F 60% 30.44 in 10.0 mi North 9.2 mph - N/A   Clear
9:15 AM 39.2 °F 34.2 °F 24.8 °F 56% 30.44 in 10.0 mi North 6.9 mph - N/A   Clear
9:35 AM 39.2 °F 33.6 °F 23.0 °F 52% 30.44 in 10.0 mi North 8.1 mph - N/A   Clear
9:55 AM 41.0 °F 34.7 °F 21.2 °F 45% 30.44 in 10.0 mi NNW 10.4 mph - N/A   Clear
10:15 AM 41.0 °F 35.8 °F 21.2 °F 45% 30.44 in 10.0 mi NNE 8.1 mph - N/A   Clear
10:35 AM 41.0 °F 36.4 °F 19.4 °F 42% 30.44 in 10.0 mi North 6.9 mph - N/A   Clear
10:55 AM 41.0 °F 38.0 °F 19.4 °F 42% 30.44 in 10.0 mi NNW 4.6 mph - N/A   Clear
11:15 AM 42.8 °F 37.5 °F 19.4 °F 39% 30.43 in 10.0 mi NNW 9.2 mph - N/A   Clear
11:35 AM 42.8 °F 37.5 °F 19.4 °F 39% 30.43 in 10.0 mi WNW 9.2 mph - N/A   Clear
11:55 AM 44.6 °F 41.4 °F 17.6 °F 34% 30.42 in 10.0 mi North 5.8 mph - N/A   Clear
12:15 PM 46.4 °F 41.5 °F 19.4 °F 34% 30.41 in 10.0 mi North 10.4 mph - N/A   Clear
12:35 PM 46.4 °F 41.5 °F 19.4 °F 34% 30.40 in 10.0 mi NE 10.4 mph 16.1 mph N/A   Clear
12:55 PM 46.4 °F 43.5 °F 19.4 °F 34% 30.40 in 10.0 mi NNW 5.8 mph 16.1 mph N/A   Clear
1:15 PM 46.4 °F 41.9 °F 17.6 °F 32% 30.39 in 10.0 mi North 9.2 mph - N/A   Clear
1:35 PM 48.2 °F - 19.4 °F 32% 30.38 in 10.0 mi NNW 6.9 mph - N/A   Clear
1:55 PM 48.2 °F - 17.6 °F 30% 30.37 in 10.0 mi North 6.9 mph - N/A   Clear
2:15 PM 50.0 °F - 15.8 °F 26% 30.36 in 10.0 mi WNW 3.5 mph - N/A   Clear
2:35 PM 48.2 °F - 15.8 °F 27% 30.36 in 10.0 mi NW 9.2 mph - N/A   Clear
2:55 PM 50.0 °F - 15.8 °F 26% 30.35 in 10.0 mi West 5.8 mph - N/A   Clear
3:15 PM 50.0 °F - 14.0 °F 24% 30.34 in 10.0 mi South 4.6 mph - N/A   Clear
3:35 PM 50.0 °F - 14.0 °F 24% 30.34 in 10.0 mi ENE 4.6 mph - N/A   Clear
3:55 PM 51.8 °F - 14.0 °F 22% 30.33 in 10.0 mi Calm Calm - N/A   Clear
4:15 PM 53.6 °F - 14.0 °F 21% 30.32 in 10.0 mi North 10.4 mph - N/A   Clear
4:35 PM 53.6 °F - 12.2 °F 19% 30.31 in 10.0 mi North 8.1 mph 16.1 mph N/A   Clear
4:55 PM 53.6 °F - 12.2 °F 19% 30.30 in 10.0 mi North 4.6 mph - N/A   Clear
5:15 PM 53.6 °F - 10.4 °F 18% 30.30 in 10.0 mi NNE 6.9 mph - N/A   Clear
5:35 PM 53.6 °F - 12.2 °F 19% 30.29 in 10.0 mi West 3.5 mph 17.3 mph N/A   Clear
5:55 PM 53.6 °F - 10.4 °F 18% 30.28 in 10.0 mi North 6.9 mph - N/A   Clear
6:15 PM 53.6 °F - 12.2 °F 19% 30.28 in 10.0 mi North 9.2 mph - N/A   Clear
6:35 PM 53.6 °F - 10.4 °F 18% 30.27 in 10.0 mi North 9.2 mph - N/A   Clear
6:55 PM 53.6 °F - 10.4 °F 18% 30.27 in 10.0 mi North 8.1 mph - N/A   Clear
7:15 PM 53.6 °F - 8.6 °F 16% 30.26 in 10.0 mi WNW 4.6 mph - N/A   Clear
7:35 PM 53.6 °F - 12.2 °F 19% 30.25 in 10.0 mi NNE 3.5 mph - N/A   Clear
7:55 PM 53.6 °F - 14.0 °F 21% 30.25 in 10.0 mi NNE 4.6 mph - N/A   Clear
8:15 PM 53.6 °F - 8.6 °F 16% 30.24 in 10.0 mi North 4.6 mph - N/A   Clear
8:35 PM 50.0 °F - 14.0 °F 24% 30.24 in 10.0 mi Calm Calm - N/A   Clear
8:55 PM 48.2 °F - 17.6 °F 30% 30.23 in 10.0 mi Calm Calm - N/A   Clear
9:15 PM 37.4 °F 34.9 °F 19.4 °F 48% 30.23 in 10.0 mi East 3.5 mph - N/A   Clear
9:35 PM 33.8 °F 29.6 °F 17.6 °F 52% 30.24 in 6.0 mi ESE 4.6 mph - N/A   Haze
9:55 PM 32.0 °F 28.7 °F 17.6 °F 55% 30.24 in 10.0 mi ESE 3.5 mph - N/A   Clear
10:15 PM 32.0 °F 25.6 °F 17.6 °F 55% 30.23 in 8.0 mi SE 6.9 mph - N/A   Clear
10:35 PM 32.0 °F 24.8 °F 15.8 °F 51% 30.24 in 10.0 mi SE 8.1 mph - N/A   Clear
10:55 PM 30.2 °F 24.3 °F 15.8 °F 55% 30.24 in 10.0 mi SSE 5.8 mph - N/A   Clear
11:15 PM 30.2 °F - 15.8 °F 55% 30.24 in 10.0 mi Calm Calm - N/A   Partly Cloudy
11:35 PM 28.4 °F 24.6 °F 15.8 °F 59% 30.24 in 10.0 mi SSE 3.5 mph - N/A   Partly Cloudy
11:55 PM 26.6 °F - 15.8 °F 64% 30.24 in 10.0 mi Calm Calm - N/A   Clear